Location: Newark
(44.4156°N, 12.1972°E)
Time: 09:21:49
(UTC+00:00)

STARLINK-1103 - Pass Details

Date: 31 January 2020
Orbit: 530 x 532 km, 53.0° (Epoch: 18 February)

Event Time Altitude Azimuth Distance (km) Brightness Sun altitude
Rises 16:41:30 0° 304° (NW) 2,687 7.7 -4.7°
Reaches altitude 10° 16:43:48 10° 310° (NW) 1,797 6.7 -5.1°
Maximum altitude 16:47:45 47° 25° (NNE) 720 3.9 -5.7°
Drops below altitude 10° 16:51:42 10° 101° (E) 1,802 5.7 -6.4°
Enters shadow 16:53:01 - 105° (ESE) 2,312 6.3 -6.6°
